Location: Ladrillo (historical)
(32.8195°N, 117.2231°W)
Time: 00:26:45
(UTC+00:00)

Courier 1B - Pass Details

Date: 11 March 2021
Orbit: 963 x 1209 km, 28.3° (Epoch: 15 April)

Event Time Altitude Azimuth Distance (km) Brightness Sun altitude
Rises 14:22:28 0° 262° (W) 3,761 9.9 3.1°
Reaches altitude 10° 14:25:15 10° 259° (WSW) 2,777 9.3 3.6°
Maximum altitude 14:31:48 60° 181° (S) 1,108 8.0 5.0°
Drops below altitude 10° 14:38:09 10° 103° (ESE) 2,688 12.8 6.3°
Sets 14:40:48 0° 99° (E) 3,632 13.3 6.9°
